Location: *
(45.9500°N, 9.0833°E)
Time: 02:07:45
(UTC+00:00)

SR - Pass Details

Date: 18 June 2021
Orbit: 577 x 878 km, 66.7° (Epoch: 23 July)

Event Time Altitude Azimuth Distance (km) Brightness Sun altitude
Rises 23:24:21 0° 331° (NNW) 3,354 ? -20.6°
Reaches altitude 10° 23:27:16 10° 343° (NNW) 2,371 ? -20.6°
Maximum altitude 23:31:48 26° 40° (NE) 1,443 ? -20.6°
Drops below altitude 10° 23:36:02 10° 97° (E) 2,191 ? -20.6°
Enters shadow 23:38:19 - 109° (ESE) 2,951 ? -20.6°
Sets 23:38:36 0° 110° (ESE) 3,051 - -20.6°
